Regional Weather Roundup
Issued by NWS

Home | Current Version | Previous Version | Text Only | Print | Product List | Glossary On
Versions: 1 2 3 4 5 6 7 8 9 10 11 12 13 14 15 16 17 18 19 20 21 22 23 24 25 26 27 28
000
ASUS46 KPQR 260410
RWROR

OREGON REGIONAL WEATHER ROUNDUP
NATIONAL WEATHER SERVICE PORTLAND OR
900 PM PDT MON SEP 25 2017

NOTE: "FAIR" INDICATES FEW OR NO CLOUDS BELOW 12,000 FEET WITH
NO SIGNIFICANT WEATHER AND/OR OBSTRUCTIONS TO VISIBILITY.

ORZ001>013-260500-
NORTHWEST OREGON


CITY           SKY/WX    TMP DP  RH WIND       PRES   REMARKS
ASTORIA        CLOUDY    59  57  93 CALM      30.10R FOG
NEWPORT        CLOUDY    59  57  94 CALM      30.14R
PORTLAND       CLOUDY    65  56  72 CALM      30.10S
VANCOUVER WA   CLOUDY    64  57  78 SW3       30.09F
SCAPPOOSE      CLOUDY    63  57  81 CALM      30.10S
HILLSBORO      CLOUDY    63  57  81 CALM      30.10S
AURORA         CLOUDY    63  55  75 NE3       30.11R
MCMINNVILLE    MOCLDY    62  56  80 CALM      30.11R
SALEM          CLOUDY    65  55  70 NE3       30.09R
CORVALLIS      CLOUDY    64  57  78 NW7       30.10R
EUGENE         MOCLDY    60  54  80 N6        30.09R
$$

ORZ021-028-260500-
SOUTHWEST OREGON


CITY           SKY/WX    TMP DP  RH WIND       PRES   REMARKS
NORTH BEND     CLEAR     59  56  89 CALM      30.11R
BROOKINGS      CLEAR     65  54  67 NW3       30.02R
ROSEBURG       CLEAR     66  51  58 CALM      30.07R
SEXTON SUMMIT  CLEAR     54  43  66 N9G18     30.13
GRANTS PASS    FAIR      64  46  52 SW6       30.09R
MEDFORD        CLEAR     64  47  53 NE5       30.05R
$$

ORZ014>016-041-260500-
COLUMBIA GORGE


CITY           SKY/WX    TMP DP  RH WIND       PRES   REMARKS
TROUTDALE      CLOUDY    64  57  78 CALM      30.10S
THE DALLES     CLOUDY    67  51  56 W8        30.06R
$$

ORZ029>031-041-044-049-050-061>064-502-503-505>511-260500-
EASTERN OREGON


CITY           SKY/WX    TMP DP  RH WIND       PRES   REMARKS
MADRAS         CLOUDY    61  61 100 NW12      30.13R
REDMOND        CLOUDY    59  44  57 NW8       30.12R
BEND           MOCLDY    57  46  67 N7        30.14R
PRINEVILLE     CLOUDY    59  46  63 N8        30.13R
KLAMATH FALLS  CLEAR     55  42  61 N8        30.10R
LAKEVIEW       CLEAR     47  32  56 NW7       30.12R
HERMISTON        N/A     65  52  62 S5        30.03R
PENDLETON      CLOUDY    63  48  58 CALM      30.05S
JOHN DAY       CLOUDY    61  37  39 CALM      30.10R
MEACHAM        CLOUDY    52  43  71 CALM      30.12S
LA GRANDE      CLOUDY    57  45  64 N7        30.10R
BAKER CITY     CLOUDY    56  42  59 N3        30.11R
BURNS          CLOUDY    54  39  57 NE7       30.11R
ROME             N/A     56  33  42 E8        30.10S
ONTARIO        CLOUDY    60  41  49 CALM      30.07R
$$




USA.gov is the U.S. government's official web portal to all federal, state and local government web resources and services.